EUS17UL EKVG-EGPH

Flight info

Callsign EUS17UL
Flight time 1h 9m
Altitude 39000
Route ODEVA DCT NALAN DCT LAGAV/N0361F240 N560 FOYLE DCT STIRA
Aircraft A320/M-SDE3FGHIRWY/LB1

Departure

Time 2026-05-08 23:57
Airport Vágar Airport (EKVG)

Arrival

Time 2026-05-09 01:06
Airport Edinburgh Airport (EGPH)
Time Latitude Longitude Altitude Speed Heading
2026-05-08 23:32 62.06754 -7.28206 289 ft 0 kts 67°
2026-05-08 23:52 62.06754 -7.28205 289 ft 0 kts 67°
2026-05-08 23:52 62.06753 -7.28192 293 ft 0 kts 105°
2026-05-08 23:52 62.06746 -7.28187 293 ft 1 kts 163°
2026-05-08 23:52 62.06718 -7.28178 290 ft 13 kts 163°
2026-05-08 23:53 62.06632 -7.28094 290 ft 12 kts 172°
2026-05-08 23:53 62.06571 -7.28094 288 ft 5 kts 186°
2026-05-08 23:53 62.06559 -7.28099 288 ft 0 kts 193°
2026-05-08 23:54 62.06501 -7.28146 292 ft 16 kts 201°
2026-05-08 23:54 62.06433 -7.28054 292 ft 18 kts 102°
2026-05-08 23:55 62.06201 -7.27090 276 ft 53 kts 116°
2026-05-08 23:55 62.06047 -7.26463 259 ft 36 kts 118°
2026-05-08 23:55 62.05959 -7.26100 244 ft 12 kts 107°
2026-05-08 23:55 62.05930 -7.26001 246 ft 2 kts 188°
2026-05-08 23:56 62.05942 -7.26062 244 ft 8 kts 302°
2026-05-08 23:56 62.06023 -7.26370 254 ft 54 kts 298°
2026-05-08 23:56 62.06302 -7.27492 294 ft 115 kts 298°
2026-05-08 23:56 62.06697 -7.29104 806 ft 125 kts 298°
2026-05-08 23:57 62.06966 -7.30877 1672 ft 127 kts 286°
2026-05-08 23:57 62.07249 -7.32751 2298 ft 142 kts 299°
2026-05-08 23:57 62.07612 -7.34909 2732 ft 168 kts 291°
2026-05-08 23:57 62.07929 -7.37485 3225 ft 191 kts 289°
2026-05-08 23:58 62.08243 -7.40314 4077 ft 199 kts 288°
2026-05-08 23:58 62.08547 -7.43224 5039 ft 205 kts 287°
2026-05-08 23:58 62.08818 -7.46280 5784 ft 217 kts 281°
2026-05-08 23:58 62.08794 -7.49542 6555 ft 223 kts 269°
2026-05-08 23:59 62.08433 -7.52803 7513 ft 232 kts 257°
2026-05-08 23:59 62.07700 -7.55967 8422 ft 244 kts 245°
2026-05-08 23:59 62.06573 -7.58800 9342 ft 258 kts 229°
2026-05-08 23:59 62.05076 -7.61084 10202 ft 274 kts 216°
2026-05-09 00:00 62.03255 -7.62509 11103 ft 283 kts 197°
2026-05-09 00:00 62.01262 -7.62820 12012 ft 291 kts 179°
2026-05-09 00:00 61.99292 -7.61921 13112 ft 291 kts 163°
2026-05-09 00:00 61.97477 -7.59894 13976 ft 301 kts 147°
2026-05-09 00:01 61.95972 -7.56727 14741 ft 307 kts 127°
2026-05-09 00:01 61.94971 -7.52740 15637 ft 307 kts 109°
2026-05-09 00:01 61.94542 -7.48269 16306 ft 312 kts 93°
2026-05-09 00:01 61.94350 -7.43518 16557 ft 335 kts 93°
2026-05-09 00:02 61.94136 -7.38419 16718 ft 358 kts 94°
2026-05-09 00:02 61.93899 -7.33057 17125 ft 371 kts 94°
2026-05-09 00:02 61.93649 -7.27560 17722 ft 378 kts 94°
2026-05-09 00:02 61.93388 -7.21972 18431 ft 381 kts 94°
2026-05-09 00:03 61.93210 -7.18265 18945 ft 380 kts 94°
2026-05-09 00:03 61.92944 -7.12628 19467 ft 388 kts 94°
2026-05-09 00:03 61.92673 -7.06890 20016 ft 393 kts 94°
2026-05-09 00:03 61.92395 -7.01099 20720 ft 394 kts 94°
2026-05-09 00:04 61.92116 -6.95303 21362 ft 397 kts 94°
2026-05-09 00:04 61.91830 -6.89423 21906 ft 402 kts 94°
2026-05-09 00:04 61.91541 -6.83531 22643 ft 402 kts 94°
2026-05-09 00:04 61.91246 -6.77590 23265 ft 406 kts 96°
2026-05-09 00:05 61.90589 -6.71714 23766 ft 413 kts 110°
2026-05-09 00:05 61.89311 -6.66248 24267 ft 416 kts 123°
2026-05-09 00:05 61.87489 -6.61519 24892 ft 414 kts 136°
2026-05-09 00:05 61.85235 -6.57705 25345 ft 416 kts 150°
2026-05-09 00:06 61.82635 -6.55035 25786 ft 416 kts 163°
2026-05-09 00:06 61.79886 -6.53145 26258 ft 418 kts 165°
2026-05-09 00:06 61.77087 -6.51247 26591 ft 425 kts 165°
2026-05-09 00:06 61.74265 -6.49334 27045 ft 426 kts 166°
2026-05-09 00:07 61.71432 -6.47410 27442 ft 430 kts 166°
2026-05-09 00:07 61.68573 -6.45476 27865 ft 433 kts 165°
2026-05-09 00:07 61.65703 -6.43533 28328 ft 434 kts 166°
2026-05-09 00:07 61.62814 -6.41579 28735 ft 437 kts 165°
2026-05-09 00:08 61.59912 -6.39621 29168 ft 439 kts 165°
2026-05-09 00:08 61.56995 -6.37657 29520 ft 443 kts 166°
2026-05-09 00:08 61.54053 -6.35674 29904 ft 446 kts 165°
2026-05-09 00:08 61.51090 -6.33683 30268 ft 448 kts 167°
2026-05-09 00:09 61.48116 -6.31689 30598 ft 449 kts 165°
2026-05-09 00:09 61.45135 -6.29696 30916 ft 451 kts 166°
2026-05-09 00:09 61.42139 -6.27698 31229 ft 453 kts 165°
2026-05-09 00:09 61.39125 -6.25692 31513 ft 455 kts 165°
2026-05-09 00:10 61.36104 -6.23685 31765 ft 458 kts 165°
2026-05-09 00:10 61.33069 -6.21671 32101 ft 458 kts 166°
2026-05-09 00:10 61.30038 -6.19654 32469 ft 458 kts 167°
2026-05-09 00:10 61.27001 -6.17642 32847 ft 457 kts 166°
2026-05-09 00:11 61.23971 -6.15642 33212 ft 457 kts 165°
2026-05-09 00:11 61.20942 -6.13650 33615 ft 456 kts 165°
2026-05-09 00:11 61.17917 -6.11669 33976 ft 456 kts 166°
2026-05-09 00:11 61.14894 -6.09694 34327 ft 455 kts 166°
2026-05-09 00:12 61.11876 -6.07723 34618 ft 455 kts 167°
2026-05-09 00:12 61.08853 -6.05749 34912 ft 455 kts 166°
2026-05-09 00:12 61.05836 -6.03782 35203 ft 455 kts 166°
2026-05-09 00:12 61.02814 -6.01817 35478 ft 455 kts 165°
2026-05-09 00:13 60.99790 -5.99874 35762 ft 454 kts 167°
2026-05-09 00:13 60.96750 -5.98113 36014 ft 454 kts 168°
2026-05-09 00:13 60.93680 -5.96541 36260 ft 454 kts 171°
2026-05-09 00:13 60.90602 -5.95094 36471 ft 454 kts 171°
2026-05-09 00:14 60.87526 -5.93697 36741 ft 453 kts 171°
2026-05-09 00:14 60.84488 -5.92316 36997 ft 453 kts 171°
2026-05-09 00:14 60.81372 -5.90864 37139 ft 454 kts 171°
2026-05-09 00:15 60.75226 -5.87881 37166 ft 454 kts 171°
2026-05-09 00:15 60.69083 -5.84849 37176 ft 454 kts 169°
2026-05-09 00:16 60.62989 -5.81874 37177 ft 453 kts 169°
2026-05-09 00:16 60.56857 -5.78920 37185 ft 453 kts 170°
2026-05-09 00:17 60.50727 -5.75986 37189 ft 452 kts 169°
2026-05-09 00:17 60.44602 -5.73055 37190 ft 452 kts 170°
2026-05-09 00:18 60.38472 -5.70132 37199 ft 452 kts 171°
2026-05-09 00:18 60.32348 -5.67223 37189 ft 452 kts 169°
2026-05-09 00:19 60.26230 -5.64321 37206 ft 451 kts 171°
2026-05-09 00:19 60.20114 -5.61442 37206 ft 451 kts 170°
2026-05-09 00:20 60.14002 -5.58568 37203 ft 451 kts 170°
2026-05-09 00:20 60.07889 -5.55714 37203 ft 451 kts 170°
2026-05-09 00:21 60.01785 -5.52875 37212 ft 450 kts 170°
2026-05-09 00:21 59.95690 -5.50041 37209 ft 449 kts 170°
2026-05-09 00:22 59.89596 -5.47213 37220 ft 449 kts 170°
2026-05-09 00:22 59.83505 -5.44416 37220 ft 449 kts 170°
2026-05-09 00:23 59.77409 -5.41632 37206 ft 449 kts 171°
2026-05-09 00:23 59.71327 -5.38843 37226 ft 448 kts 170°
2026-05-09 00:24 59.65251 -5.36074 37229 ft 448 kts 170°
2026-05-09 00:24 59.59175 -5.33314 37237 ft 448 kts 171°
2026-05-09 00:25 59.53102 -5.30576 37235 ft 448 kts 170°
2026-05-09 00:25 59.47025 -5.27832 37238 ft 447 kts 171°
2026-05-09 00:26 59.40964 -5.25105 37241 ft 447 kts 171°
2026-05-09 00:26 59.34906 -5.22403 37250 ft 446 kts 171°
2026-05-09 00:27 59.28847 -5.19719 37241 ft 446 kts 171°
2026-05-09 00:27 59.22794 -5.17039 37251 ft 446 kts 171°
2026-05-09 00:28 59.16741 -5.14362 37250 ft 445 kts 171°
2026-05-09 00:28 59.10704 -5.11701 37255 ft 445 kts 171°
2026-05-09 00:29 59.04675 -5.09050 37253 ft 443 kts 172°
2026-05-09 00:29 58.98659 -5.06422 37253 ft 443 kts 172°
2026-05-09 00:30 58.92685 -5.03822 37226 ft 443 kts 172°
2026-05-09 00:30 58.86693 -5.01215 37258 ft 441 kts 172°
2026-05-09 00:31 58.80711 -4.98623 37255 ft 440 kts 172°
2026-05-09 00:31 58.74731 -4.96047 37255 ft 440 kts 172°
2026-05-09 00:32 58.68750 -4.93483 37262 ft 440 kts 172°
2026-05-09 00:32 58.62773 -4.90922 37261 ft 440 kts 172°
2026-05-09 00:33 58.56794 -4.88360 37263 ft 440 kts 172°
2026-05-09 00:33 58.50810 -4.85813 37263 ft 440 kts 172°
2026-05-09 00:34 58.44836 -4.83271 37268 ft 440 kts 172°
2026-05-09 00:34 58.38852 -4.80743 37268 ft 440 kts 172°
2026-05-09 00:35 58.32884 -4.78230 37271 ft 439 kts 173°
2026-05-09 00:35 58.26923 -4.75739 37274 ft 438 kts 173°
2026-05-09 00:36 58.20970 -4.73251 37275 ft 438 kts 173°
2026-05-09 00:36 58.15021 -4.70768 37273 ft 438 kts 173°
2026-05-09 00:37 58.09069 -4.68283 37266 ft 436 kts 173°
2026-05-09 00:37 58.03152 -4.65843 37278 ft 435 kts 173°
2026-05-09 00:38 57.97239 -4.63418 37271 ft 435 kts 173°
2026-05-09 00:38 57.91332 -4.60989 37265 ft 435 kts 173°
2026-05-09 00:39 57.85425 -4.58563 37271 ft 435 kts 173°
2026-05-09 00:39 57.79529 -4.56154 37271 ft 433 kts 173°
2026-05-09 00:40 57.73647 -4.53762 37269 ft 432 kts 174°
2026-05-09 00:40 57.67773 -4.51377 37272 ft 432 kts 174°
2026-05-09 00:41 57.58957 -4.47814 37273 ft 432 kts 174°
2026-05-09 00:41 57.53094 -4.45458 37270 ft 430 kts 174°
2026-05-09 00:42 57.47258 -4.43120 37275 ft 429 kts 174°
2026-05-09 00:42 57.41421 -4.40795 37277 ft 429 kts 174°
2026-05-09 00:43 57.35582 -4.38479 37276 ft 429 kts 174°
2026-05-09 00:43 57.29817 -4.36175 37235 ft 428 kts 174°
2026-05-09 00:44 57.24008 -4.33868 37272 ft 426 kts 174°
2026-05-09 00:44 57.18210 -4.31576 37285 ft 426 kts 174°
2026-05-09 00:45 57.12415 -4.29310 37282 ft 426 kts 175°
2026-05-09 00:45 57.06616 -4.27050 37266 ft 426 kts 174°
2026-05-09 00:46 57.00820 -4.24785 37279 ft 425 kts 175°
2026-05-09 00:46 56.95039 -4.22526 37269 ft 424 kts 175°
2026-05-09 00:47 56.89259 -4.20710 37266 ft 415 kts 185°
2026-05-09 00:47 56.86406 -4.20970 37033 ft 407 kts 193°
2026-05-09 00:47 56.83603 -4.21634 36389 ft 405 kts 194°
2026-05-09 00:48 56.80830 -4.22310 35975 ft 398 kts 194°
2026-05-09 00:48 56.78108 -4.22970 35595 ft 391 kts 195°
2026-05-09 00:48 56.76333 -4.23399 35280 ft 386 kts 195°
2026-05-09 00:48 56.73696 -4.24036 34909 ft 379 kts 195°
2026-05-09 00:49 56.71110 -4.24660 34538 ft 372 kts 196°
2026-05-09 00:49 56.68568 -4.25274 34152 ft 365 kts 197°
2026-05-09 00:49 56.66069 -4.25880 33674 ft 360 kts 197°
2026-05-09 00:49 56.63604 -4.26480 33152 ft 356 kts 197°
2026-05-09 00:50 56.61160 -4.27073 32637 ft 353 kts 196°
2026-05-09 00:50 56.58735 -4.27662 32101 ft 350 kts 197°
2026-05-09 00:50 56.56329 -4.28247 31577 ft 348 kts 196°
2026-05-09 00:50 56.53935 -4.28826 31076 ft 346 kts 196°
2026-05-09 00:51 56.51561 -4.29392 30582 ft 343 kts 196°
2026-05-09 00:51 56.49196 -4.29958 30001 ft 342 kts 195°
2026-05-09 00:51 56.46839 -4.30526 29423 ft 341 kts 195°
2026-05-09 00:51 56.44491 -4.31091 28882 ft 339 kts 195°
2026-05-09 00:52 56.42161 -4.31649 28381 ft 337 kts 195°
2026-05-09 00:52 56.39845 -4.32201 27874 ft 334 kts 195°
2026-05-09 00:52 56.37544 -4.32749 27374 ft 332 kts 195°
2026-05-09 00:52 56.35256 -4.33290 26875 ft 330 kts 194°
2026-05-09 00:53 56.32985 -4.33825 26391 ft 328 kts 194°
2026-05-09 00:53 56.30730 -4.34360 25898 ft 326 kts 194°
2026-05-09 00:53 56.28490 -4.34890 25413 ft 324 kts 194°
2026-05-09 00:53 56.26264 -4.35414 24967 ft 322 kts 194°
2026-05-09 00:54 56.24049 -4.35932 24520 ft 320 kts 194°
2026-05-09 00:54 56.21847 -4.36448 24040 ft 319 kts 193°
2026-05-09 00:54 56.19651 -4.36964 23524 ft 318 kts 193°
2026-05-09 00:54 56.17426 -4.36870 23017 ft 329 kts 171°
2026-05-09 00:55 56.15372 -4.34884 22535 ft 347 kts 143°
2026-05-09 00:55 56.13978 -4.31263 22050 ft 364 kts 116°
2026-05-09 00:55 56.13393 -4.26817 21571 ft 371 kts 100°
2026-05-09 00:55 56.13308 -4.22189 21133 ft 372 kts 91°
2026-05-09 00:56 56.13454 -4.17570 20734 ft 370 kts 89°
2026-05-09 00:56 56.13638 -4.12989 20343 ft 367 kts 89°
2026-05-09 00:56 56.13760 -4.08447 19965 ft 363 kts 91°
2026-05-09 00:56 56.13796 -4.03946 19565 ft 360 kts 93°
2026-05-09 00:57 56.13761 -3.99450 19099 ft 360 kts 94°
2026-05-09 00:57 56.13676 -3.94962 18581 ft 361 kts 95°
2026-05-09 00:57 56.13567 -3.90428 17840 ft 367 kts 95°
2026-05-09 00:57 56.13453 -3.85816 17101 ft 372 kts 95°
2026-05-09 00:58 56.13109 -3.81226 16386 ft 372 kts 110°
2026-05-09 00:58 56.12026 -3.77068 15683 ft 367 kts 128°
2026-05-09 00:58 56.10298 -3.73766 14977 ft 362 kts 147°
2026-05-09 00:58 56.08111 -3.71645 14325 ft 356 kts 166°
2026-05-09 00:59 56.05706 -3.71078 13761 ft 345 kts 187°
2026-05-09 00:59 56.03436 -3.72136 13236 ft 334 kts 206°
2026-05-09 00:59 56.01376 -3.73971 12734 ft 329 kts 209°
2026-05-09 00:59 55.99355 -3.75848 12228 ft 325 kts 209°
2026-05-09 01:00 55.97391 -3.77770 11729 ft 319 kts 214°
2026-05-09 01:00 55.95534 -3.79890 11249 ft 316 kts 212°
2026-05-09 01:00 55.93508 -3.81348 10770 ft 315 kts 194°
2026-05-09 01:00 55.91328 -3.81459 10249 ft 313 kts 173°
2026-05-09 01:01 55.89302 -3.80171 9506 ft 308 kts 152°
2026-05-09 01:01 55.87665 -3.77665 8303 ft 317 kts 130°
2026-05-09 01:01 55.86348 -3.74487 7146 ft 320 kts 127°
2026-05-09 01:01 55.85085 -3.71229 5970 ft 320 kts 118°
2026-05-09 01:02 55.84563 -3.67483 4825 ft 319 kts 88°
2026-05-09 01:02 55.85125 -3.63733 4042 ft 304 kts 64°
2026-05-09 01:02 55.86211 -3.60610 3239 ft 292 kts 48°
2026-05-09 01:02 55.87754 -3.58442 2736 ft 272 kts 36°
2026-05-09 01:03 55.88926 -3.56100 2389 ft 250 kts 64°
2026-05-09 01:03 55.89545 -3.53409 2066 ft 219 kts 62°
2026-05-09 01:03 55.90249 -3.51185 1781 ft 195 kts 57°
2026-05-09 01:03 55.90919 -3.49230 1554 ft 174 kts 57°
2026-05-09 01:04 55.91525 -3.47458 1299 ft 162 kts 57°
2026-05-09 01:04 55.92105 -3.45764 1070 ft 159 kts 57°
2026-05-09 01:04 55.92675 -3.44099 828 ft 156 kts 58°
2026-05-09 01:04 55.93226 -3.42504 626 ft 143 kts 59°
2026-05-09 01:05 55.93712 -3.41045 424 ft 132 kts 59°
2026-05-09 01:05 55.94175 -3.39671 245 ft 126 kts 59°
2026-05-09 01:05 55.95007 -3.37225 111 ft 82 kts 58°
2026-05-09 01:06 55.95212 -3.36620 113 ft 32 kts 59°
2026-05-09 01:06 55.95243 -3.36406 111 ft 17 kts 136°
2026-05-09 01:06 55.95162 -3.36317 114 ft 8 kts 152°
2026-05-09 01:06 55.95119 -3.36336 114 ft 6 kts 226°
2026-05-09 01:07 55.95083 -3.36436 116 ft 15 kts 239°
2026-05-09 01:07 55.95028 -3.36594 114 ft 14 kts 239°
2026-05-09 01:07 55.94978 -3.36743 114 ft 14 kts 239°
2026-05-09 01:07 55.94921 -3.36824 113 ft 10 kts 163°
2026-05-09 01:08 55.94863 -3.36781 115 ft 9 kts 172°
2026-05-09 01:08 55.94805 -3.36777 116 ft 8 kts 179°
2026-05-09 01:08 55.94759 -3.36749 114 ft 7 kts 149°
2026-05-09 01:08 55.94717 -3.36737 115 ft 6 kts 177°
2026-05-09 01:09 55.94679 -3.36736 116 ft 5 kts 179°
2026-05-09 01:09 55.94644 -3.36735 116 ft 5 kts 179°
2026-05-09 01:09 55.94616 -3.36722 116 ft 3 kts 136°
2026-05-09 01:09 55.94612 -3.36686 116 ft 3 kts 95°
2026-05-09 01:10 55.94612 -3.36656 116 ft 2 kts 91°
2026-05-09 01:10 55.94612 -3.36635 116 ft 1 kts 89°
2026-05-09 01:10 55.94612 -3.36627 116 ft 0 kts 89°